Regional Weather Roundup
Issued by NWS Cleveland, OH

Home | Current Version | Previous Version | Graphics & Text | Print | Product List | Glossary On
Versions: 1 2 3 4 5 6 7 8 9 10 11 12 13 14 15 16 17 18 19 20 21 22 23 24 25 26 27 28 29 30 31 32 33 34 35 36 37 38 39 40 41 42 43 44 45 46 47 48 49 50
000
ASUS41 KCLE 231400
RWRCLE
OHIO REGIONAL WEATHER ROUNDUP
NATIONAL WEATHER SERVICE WILMINGTON, OH
1000 AM EDT WED JUL 23 2014

NOTE: "FAIR" INDICATES FEW OR NO CLOUDS BELOW 12,000 FEET WITH NO
SIGNIFICANT WEATHER AND/OR OBSTRUCTIONS TO VISIBILITY.

OHZ001>008-015>018-024>027-034-035-043-044-231500-
   NORTHWEST OHIO

CITY           SKY/WX    TMP DP  RH WIND       PRES   REMARKS
DEFIANCE       CLOUDY    75  67  76 NW6       30.01R
FINDLAY        PTSUNNY   76  69  79 SW12      29.99R
TOLEDO EXPRESS CLOUDY    71  63  75 N13       30.00R
TOLEDO METCALF CLOUDY    72  66  81 N10       30.00R
LIMA           CLOUDY    73  68  84 SW7       30.02S
$$

OHZ009>014-019>023-028>033-038-089-231500-
   NORTHEAST OHIO

CITY           SKY/WX    TMP DP  RH WIND       PRES   REMARKS
CLE-HOPKINS    CLOUDY    74  69  85 W7        29.98S
CLE-LAKEFRONT  CLOUDY    75  69  81 W12       29.94F
CUY CO. ARPT   CLOUDY    75  72  88 W12       29.97F
LORAIN-ELYRIA  CLOUDY    76  69  79 W9        29.98R
ASHTABULA      CLOUDY    74  68  81 W17       29.96F
AKRON-CANTON   CLOUDY    75  66  73 W3        29.97F
WOOSTER        NOT AVBL
MANSFIELD      CLOUDY    71  68  90 SW12      29.99F
YOUNGSTOWN     CLOUDY    76  68  76 W8        29.97R
$$

OHZ042-051>053-060>062-070>072-077>081-231500-
  SOUTHWEST OHIO

CITY           SKY/WX    TMP DP  RH WIND       PRES   REMARKS
CINC-COVINGTON LGT RAIN  72  67  84 SE6       30.04F
CINC-LUNKEN    TSTM      71  69  93 S6        30.03F
HAMILTON       NOT AVBL
DAYTON         NOT AVBL
WRIGHT-PAT AFB NOT AVBL
DAYTON GENERAL CLOUDY    69  66  90 S6        30.00F
WILMINGTON     LGT RAIN  72  66  81 S8        30.01F
$$

OHZ036-037-039>041-045>050-054>059-063>069-073>076-082>088-231500-
  CENTRAL AND SOUTHEAST OHIO

CITY           SKY/WX    TMP DP  RH WIND       PRES   REMARKS
COLUMBUS       LGT RAIN  74  67  78 S7        29.94F
OSU AIRPORT    LGT RAIN  70  65  84 S9        29.93F
BOLTON FIELD   NOT AVBL
RICKENBACK AFB NOT AVBL
NEWARK         CLOUDY    75  67  76 S9        29.95F
MARION         CLOUDY    72  66  81 W10       30.01R
LANCASTER      CLOUDY    75  67  76 S8        29.98F
ZANESVILLE     PTSUNNY   76  67  73 SW5       29.99F
NEW PHILLY     CLOUDY    76  70  82 S5        29.97F
$$



USA.gov is the U.S. government's official web portal to all federal, state and local government web resources and services.